World > North America > United States > Illinois   City of West Chicago, IL

West Chicago, Illinois Regional Weather

Lat: 41.89N, Lon: 88.22W
Wx Zone: ILZ013Web Search
West Chicago Weather Warning NWS WEATHER ALERT FOR THE WEST CHICAGO, IL AREA - Issued: 422 AM CDT Sun May 9 2021 West Chicago Weather Warning  

Ads allow us to feed your daily addiction for the world's greatest weather information. We're determined to offer quality sponsors, in the least annoying way possible.

Feedback


°F Click to change West Chicago hourly weather to Imperial units.Click to change West Chicago hourly weather to Metric units. °C
West Chicago Weather Map
UTC Time: 5/9/2021, 12:58
Your Time:

West Chicago, IL Regional Weather

Expires:202105091300;;838153
ASUS43 KLOT 091209
RWRIL 

ILLINOIS REGIONAL WEATHER ROUNDUP
NATIONAL WEATHER SERVICE CHICAGO/ROMEOVILLE IL
700 AM CDT SUN MAY 09 2021

NOTE: "FAIR" INDICATES FEW OR NO CLOUDS BELOW 12,000 FEET WITH NO
SIGNIFICANT WEATHER AND/OR OBSTRUCTIONS TO VISIBILITY.

* THESE STATIONS ARE NOT UNDER NWS QUALITY CONTROL. THEY ALSO MAY NOT
  REPORT WEATHER SUCH AS PRECIPITATION OR FOG.


ILZ005-006-012>014-019>023-091300-
NORTHEAST ILLINOIS
  
CITY           SKY/WX    TMP DP  RH WIND       PRES   REMARKS
CHICAGO-OHARE  LGT RAIN  42  38  85 E13       29.90F FOG              
6HR MIN TEMP:  40; 6HR MAX TEMP:  43; 6HR PCP:  0.02;                

CHICAGO-MIDWAY LGT RAIN  41  37  86 E17       29.90F                  
6HR MIN TEMP:  40; 6HR MAX TEMP:  42; 6HR PCP:  0.40;                

AURORA         LGT RAIN  40  37  89 E16       29.87F                  
6HR MIN TEMP:  36; 6HR MAX TEMP:  40; 6HR PCP:  0.58;                

JOLIET*        RAIN      40  38  94 E13       29.88F                  
WAUKEGAN       CLOUDY    43  35  73 E8        29.92S                  
6HR MIN TEMP:  41; 6HR MAX TEMP:  44;                                

DUPAGE AIRPORT LGT RAIN  41  37  86 E17G25    29.88F FOG              
6HR MIN TEMP:  38; 6HR MAX TEMP:  41; 6HR PCP:  0.15;                

KANKAKEE*      RAIN      39  39  98 E22       29.84F WCI  29          
WHEELING       CLOUDY    45  37  73 E9        29.92F                  
6HR MIN TEMP:  43; 6HR MAX TEMP:  45;                                

MORRIS*        RAIN      39  37  93 E12G24    29.85F WCI  32          
ROMEOVILLE*    LGT RAIN  38  38  99 E16G22    29.87F WCI  29          
LANSING*       LGT RAIN  37  37 100 E14       29.89F WCI  28          
NORTHERLY ISL*   N/A     42  39  89 E18         N/A                   
$$


SKY/WX - Weather  TMP - Temperature  DP - Dew Point  RH - Relative Humidity
WIND - Wind Direction/Speed PRES - Barometric Pressure VSB - Visibility
WCI - Wind Chill Index E13G22 Wind - East Wind 13 mph/Gusts of 22 mph